Regional Weather Roundup
Issued by NWS Burlington, VT

Home | Current Version | Previous Version | Text Only | Print | Product List | Glossary On
Versions: 1 2 3 4 5 6 7 8 9 10 11 12 13 14 15 16 17 18 19 20 21 22 23 24 25 26 27 28 29 30 31 32 33 34 35 36 37 38 39 40 41 42 43 44 45 46 47 48 49 50
000
ASUS41 KBTV 301130
RWRBTV
VERMONT REGIONAL WEATHER ROUNDUP
NATIONAL WEATHER SERVICE BURLINGTON VT
700 AM EDT MON MAY 30 2016

NOTE: "FAIR" INDICATES FEW OR NO CLOUDS BELOW 12,000 FEET WITH NO
SIGNIFICANT WEATHER AND/OR OBSTRUCTIONS TO VISIBILITY.

* THESE REPORTS ARE NOT UNDER NWS QUALITY CONTROL AND/OR DO NOT
  REPORT WEATHER SUCH AS PRECIPITATION AND FOG.

VTZ001>019-301200-
_____VERMONT_____


CITY           SKY/WX    TMP DP  RH WIND       PRES   REMARKS
BURLINGTON     PTSUNNY   69  63  81 S12       29.91F
MONTPELIER     CLOUDY    60  58  92 S6        30.01F
MORRISVILLE    CLOUDY    63  61  93 S6        29.95F
ST. JOHNSBURY*   N/A     61  57  87 MISG      29.97S
LYNDONVILLE*   CLOUDY    58  57  96 SE6       29.99F FOG
RUTLAND*       CLOUDY    63  61  93 SE3       29.97F
SPRINGFIELD    RAIN      59  57  93 CALM      30.01F FOG
HIGHGATE*      CLOUDY    68  64  88 S10       29.88S
NEWPORT*       CLOUDY    61  59  93 S9        29.95S
BENNINGTON     LGT RAIN  66  65  96 CALM      29.99S FOG
SUTTON*          N/A     57 N/A N/A MISG        N/A
GALLUP MILLS*    N/A     59 N/A N/A MISG        N/A
UNION VILLAGE*   N/A     59 N/A N/A MISG        N/A
MT. MANSFIELD*   N/A     59 N/A N/A NW16        N/A

_____LAKE CHAMPLAIN_____


CITY           SKY/WX    TMP DP  RH WIND       PRES   REMARKS
BURTON ISLAND*   N/A     66  64  94 SE13        N/A
COLCHESTER RF*   N/A     64  64 100 S21         N/A
DIAMOND ISL*     N/A     68  66  94 S7          N/A

$$

NYZ007-026>031-035-052-083-087-301200-
_____NORTHERN NEW YORK_____


CITY           SKY/WX    TMP DP  RH WIND       PRES   REMARKS
PLATTSBURGH    CLOUDY    66  65  96 CALM      29.89S FOG
SARANAC LAKE   PTSUNNY   64  61  90 SW6       29.94S
MASSENA        PTSUNNY   70  62  76 SW7       29.88S
OGDENSBURG*    SUNNY     68  63  83 SW6       29.89S
STARK FALLS*     N/A     32 N/A N/A S6          N/A  WCI  26
WATERTOWN      MOSUNNY   70  61  73 S12       29.90S
ALBANY         LGT RAIN  68  64  87 S9        29.97S
GLENS FALLS    CLOUDY    68  65  90 SW6       29.95S

$$
NHZ002-005-011-301200-
_____NEW HAMPSHIRE_____


CITY           SKY/WX    TMP DP  RH WIND       PRES   REMARKS
LEBANON        CLOUDY    59  57  93 NE3       29.99F FOG
MT WASHINGTON  FOG       48  48 100 W31         N/A  VSB 1/16
PLYMOUTH       CLOUDY    56  54  93 CALM      30.01F
WHITEFIELD     CLOUDY    61  57  87 CALM      29.99S FOG

$$

_____REGIONAL QUEBEC LOCATIONS_____


CITY           SKY/WX    TMP DP  RH WIND       PRES   REMARKS
MONTREAL       CLOUDY    70  66  88 S10       29.85S
QUEBEC CITY    CLOUDY    59  59 100 VRB5      29.86  FOG
SHERBROOKE     CLOUDY    63  61  94 VRB2      29.91F

_____REGIONAL ONTARIO LOCATIONS_____


CITY           SKY/WX    TMP DP  RH WIND       PRES   REMARKS
OTTAWA         MOSUNNY   68  61  77 SW9       29.86R

______KEY______
VSB  - VISIBILITY IN MILES
WCI  - WIND CHILL INDEX
HX   - HEAT INDEX
$$
NNNN




USA.gov is the U.S. government's official web portal to all federal, state and local government web resources and services.